星链-6308 (STARLINK-6308 )

导读 | 星芒AI

STARLINK-6308 是 SpaceX 星链计划中的一颗低轨通信卫星,属于第 21 批星链卫星(Batch 21)。该卫星于 2022 年 9 月 28 日由猎鹰 9 号火箭从美国卡纳维拉尔角发射升空,部署在约 550 公里的轨道高度,用于提供全球宽带互联网服务。作为星链星座的一部分,STARLINK-6308 采用先进的推进和通信技术,支持高速、低延迟的网络连接,助力偏远地区互联网普及。

基本信息
目录编号:
56534
目录名称:
STARLINK-6308
国际标识:
2023-065AH
轨道中心:
EARTH
卫星名称:
星链-6308
卫星全名:
星链-6308 (STARLINK-6308 )
卫星状态:
在轨 (已飞行904 天)
发射日期:
2023-05-14 UTC
国别 :
美国 (US)
星等 :
--
轨道信息
数据来源 国际轨道数据 AOE轨道数据
星历时间 2025-11-02T06:31:57+0800
1天前
查看轨道信息
2025-10-30T11:00:00+0800
4天前
查看轨道信息
半长轴 6937.227km 6937.224km
偏心率 0.0001036 0.0001286
轨道倾角 43.004° 43.005°
近地点辐角 274.127° 258.634°
升交点赤经 171.836° 187.125°
平近点角 85.945° 343.469°
近地点 558.373km 558.196km
远地点 559.811km 559.982km
周期 95.838分钟 95.838分钟
每日圈数 15.025328 15.025337
详细信息
固有亮度:
5
最大亮度:
2.5
卫星平台:
Starlink v1.5
覆盖范围:
全球
运营商:
太空探索技术公司
运营商所在国:
美国
制造商(研发单位):
太空探索技术公司
制造商所在国:
美国
使用方式:
暂无
卫星简介
星链(Starlink)计划是由太空探索技术公司(SpaceX)提出的一个巨型低轨卫星互联网星座项目,计划在2019年至2024年间在太空搭建由约1.2万颗卫星组成的“星链”网络,其中1584颗将部署在地球上空550千米处的近地轨道,并从2020年开始工作。该卫星仍在工作。
2D轨道图
3D轨道图
轨道高度分析图
轨道倾角分析图
轨道综合分析图
查看轨道综合分析图